Regional Weather Roundup
Issued by NWS

Home | Current Version | Previous Version | Text Only | Print | Product List | Glossary Off
Versions: 1 2 3 4 5 6 7 8 9 10 11 12 13 14 15 16 17 18 19 20 21 22 23 24 25 26 27 28 29 30 31 32 33 34 35 36 37 38 39 40 41 42 43 44 45 46 47 48 49 50

000
ASUS45 KSLC 112010
RWRUT

UTAH REGIONAL WEATHER ROUNDUP
NATIONAL WEATHER SERVICE SALT LAKE CITY UT
100 PM MST THU FEB 11 2016

UTZ001>011-023>025-112100-

NORTHERN UTAH

CITY           SKY/WX    TMP DP  RH WIND       PRES   REMARKS
BRIGHAM CITY   CLOUDY    27  25  93 CALM      30.48F
HILL AFB       NOT AVBL
LOGAN          CLOUDY    24  21  88 CALM      30.46F FOG
OGDEN          CLOUDY    30  26  85 N6        30.45F FOG     WCI  24
PROVO AIRPORT  FOG       23  19  86 CALM      30.45F VSB 1/4
SALT LAKE CITY CLOUDY    32  27  81 NW6       30.46F HAZE    WCI  26
VERNAL         CLOUDY    30  19  63 SE3       30.41F
WENDOVER       CLOUDY    30  25  80 CALM      30.47S
HEBER CITY     MOSUNNY   32  19  59 CALM      30.39F
WEST JORDAN    CLOUDY    32  28  86 CALM      30.45F

$$

UTZ012>022-026-027-112100-

SOUTHERN/CENTRAL UTAH

CITY           SKY/WX    TMP DP  RH WIND       PRES   REMARKS
BLANDING       SUNNY     41  28  60 CALM      30.46F
BRYCE CANYON   SUNNY     40  21  46 CALM      30.43F
CEDAR CITY     MOSUNNY   38  25  59 NW5       30.37F WCI  34
DELTA          CLOUDY    18  17  95 CALM      30.44F
HANKSVILLE     SUNNY     43  32  65 CALM      30.44F
MILFORD        MOSUNNY   18  15  88 CALM      30.42F FOG
MOAB/CYNLANDS  MOSUNNY   39  29  67 NW6       30.40F WCI  35
PRICE          MOSUNNY   40  25  55 CALM      30.40F
ST GEORGE      PTCLDY    55  27  33 CALM      30.33F
KANAB          SUNNY     64  28  25 S3        30.36F

$$

REGIONAL REPORTS     COLORADO/ARIZONA

CITY           SKY/WX    TMP DP  RH WIND       PRES   REMARKS
CRAIG, CO      MIX PCPN  26  18  71 SW3       30.39F
GRAND JUNCTION CLOUDY    40  25  55 NE5       30.40F
RIFLE          SUNNY     38  18  44 CALM      30.40F
MONTROSE       SUNNY     42  22  44 E3        30.41F
CORTEZ         CLOUDY    46  19  34 S3        30.38F
PAGE, AZ       SUNNY     51  31  46 VRB3      30.37F
GRAND CANYON   SUNNY     64  16  15 CALM      30.38F
KINGMAN        SUNNY     69  24  18 N7        30.25F
FLAGSTAFF      SUNNY     57  14  18 NE8       30.39F

$$

REGIONAL REPORTS    NEVADA/IDAHO/WYOMING

CITY           SKY/WX    TMP DP  RH WIND       PRES   REMARKS
LAS VEGAS, NV  MOSUNNY   68  22  17 VRB3      30.22F
ELY            MOSUNNY   37  23  56 S6        30.38F WCI  32
ELKO           PTSUNNY   30  20  66 SE6       30.41F WCI  24
POCATELLO, ID  CLOUDY    33  23  66 E7        30.42F WCI  27
BURLEY         SUNNY     42  30  62 NE13      30.35F
EVANSTON, WY   CLOUDY    38  21  50 SW9       30.39F WCI  31
ROCK SPRINGS   CLOUDY    41  20  43 SW22      30.35F
KEMMERER       CLOUDY    41  23  48 W6        30.39F

$$



USA.gov is the U.S. government's official web portal to all federal, state and local government web resources and services.